Find OneWeb SL0696

NORAD ID: 56723 Int'l Des: 2023-068 Owner: ONEWEBN Country: UK Constellation: oneweb operational
LEOCIRCULARPOLARONEWEB_TYPE

現在のビュー

3D地球を読み込み中...

OneWeb SL0696について

説明を読み込み中...

次回通過

Passes for default location (London). Set your location on the main map for personalized predictions.

高度履歴

Loading altitude history...

軌道要素

1 56723U 23068P 26149.76681201 .00000077 00000-0 17124-3 0 9997
2 56723 87.8996 262.8925 0001596 91.7273 268.4040 13.15548718146947
Epoch: May 29, 2026 • Age: 21 hours

現在のステータス

高度 1203.8 km
速度 7.25 km/s
衛星直下点 8.49°N, 36.01°W
打ち上げ日 May 20, 2023
運用期間 3 years
タイプ internet

技術仕様

分類 Payload
質量 148.00 kg
乾燥質量 140.00 kg
総質量 148.00 kg
長さ 1.30 m
直径 1.00 m
スパン 5.00 m
形状 Trapezoid+2 pan
製造者 ONEWUS
バスタイプ ARROW
フェーズステータス In Orbit
所有者/国 ONEWEBN/UK

Most Searched